FW4117 Weather Reports


Display with metric or nautical units.
time (UTC)temp
F
wind
direction
speed
MPH
gust
MPH
rain 1hr
in
rain 24hr
in
rain mn
in
humidity
%
barometer
mb
20260509231503 88 59 2.0 6.0 0.00 0.00 0.00 50 1007.2
20260509231003 89 63 1.0 4.0 0.00 0.00 0.00 50 1007.1
20260509230503 88 63 2.0 7.0 0.00 0.00 0.00 50 1007.2
20260509230003 89 66 2.0 6.0 0.00 0.00 0.00 50 1007.3
20260509225503 89 68 2.0 5.0 0.00 0.00 0.00 50 1007.2
20260509225213 89 63 2.0 7.0 0.00 0.00 0.00 50 1007.2
20260509224503 89 58 2.0 7.0 0.00 0.00 0.00 51 1007.2
20260509224003 89 69 2.0 7.0 0.00 0.00 0.00 51 1007.2
20260509223503 89 93 2.0 7.0 0.00 0.00 0.00 51 1007.2
20260509223003 89 77 2.0 8.0 0.00 0.00 0.00 50 1007.2
20260509222503 89 65 3.0 7.0 0.00 0.00 0.00 51 1007.3
20260509222003 89 67 3.0 7.0 0.00 0.00 0.00 52 1007.3
20260509221503 89 61 2.0 8.0 0.00 0.00 0.00 51 1007.3
20260509221003 89 59 2.0 8.0 0.00 0.00 0.00 51 1007.3
20260509220503 89 65 2.0 6.0 0.00 0.00 0.00 52 1007.3
20260509220003 89 73 3.0 5.0 0.00 0.00 0.00 51 1007.3
20260509215503 89 70 2.0 7.0 0.00 0.00 0.00 52 1007.4
20260509215003 89 75 2.0 6.0 0.00 0.00 0.00 53 1007.3
20260509214714 89 85 2.0 5.0 0.00 0.00 0.00 53 1007.3
20260509214003 89 90 2.0 6.0 0.00 0.00 0.00 53 1007.3
20260509213714 89 84 2.0 7.0 0.00 0.00 0.00 52 1007.4
20260509213003 89 65 2.0 7.0 0.00 0.00 0.00 53 1007.5
20260509212503 90 55 2.0 7.0 0.00 0.00 0.00 52 1007.5
20260509212003 89 65 2.0 8.0 0.00 0.00 0.00 52 1007.5
20260509211503 90 75 3.0 8.0 0.00 0.00 0.00 51 1007.5
20260509211003 90 67 2.0 7.0 0.00 0.00 0.00 53 1007.7
20260509210503 89 59 1.0 6.0 0.00 0.00 0.00 53 1007.7
20260509210212 89 63 2.0 6.0 0.00 0.00 0.00 53 1007.9
20260509205713 89 84 2.0 6.0 0.00 0.00 0.00 54 1007.9
20260509205003 89 97 2.0 5.0 0.00 0.00 0.00 54 1008.0
20260509204503 89 98 2.0 5.0 0.00 0.00 0.00 54 1008.0
20260509204003 89 86 2.0 5.0 0.00 0.00 0.00 53 1008.2
20260509203503 90 64 2.0 8.0 0.00 0.00 0.00 52 1008.2
20260509203003 90 39 1.0 8.0 0.00 0.00 0.00 50 1008.2
20260509202503 89 281 1.0 7.0 0.00 0.00 0.00 52 1008.2
20260509202212 88 305 2.0 7.0 0.00 0.00 0.00 49 1008.2
20260509201503 90 54 1.0 4.0 0.00 0.00 0.00 50 1008.3
20260509201003 89 351 1.0 5.0 0.00 0.00 0.00 49 1008.4
20260509200503 90 15 1.0 7.0 0.00 0.00 0.00 48 1008.5
20260509200003 90 51 1.0 7.0 0.00 0.00 0.00 50 1008.5
20260509195503 89 56 1.0 3.0 0.00 0.00 0.00 52 1008.6
20260509195214 89 67 1.0 4.0 0.00 0.00 0.00 53 1008.6
20260509194503 89 34 1.0 4.0 0.00 0.00 0.00 52 1008.7
20260509194003 88 319 1.0 4.0 0.00 0.00 0.00 50 1008.8
20260509193503 88 319 1.0 4.0 0.00 0.00 0.00 52 1008.9
20260509193003 88 289 1.0 6.0 0.00 0.00 0.00 53 1008.9
20260509192503 88 309 1.0 6.0 0.00 0.00 0.00 52 1008.9
20260509192214 88 350 1.0 3.0 0.00 0.00 0.00 52 1008.9
20260509191503 88 321 1.0 4.0 0.00 0.00 0.00 52 1009.0
20260509191003 88 353 1.0 3.0 0.00 0.00 0.00 52 1009.0
20260509190503 88 16 0.0 3.0 0.00 0.00 0.00 52 1009.2
20260509190003 88 336 1.0 3.0 0.00 0.00 0.00 50 1009.3
20260509185503 88 353 1.0 3.0 0.00 0.00 0.00 54 1009.2
20260509185003 87 32 1.0 4.0 0.00 0.00 0.00 52 1009.3
20260509184503 87 95 1.0 7.0 0.00 0.00 0.00 53 1009.4
20260509184003 87 99 1.0 7.0 0.00 0.00 0.00 54 1009.5
20260509183503 87 93 1.0 6.0 0.00 0.00 0.00 54 1009.5
20260509183003 86 359 1.0 3.0 0.00 0.00 0.00 56 1009.5
20260509182712 86 18 1.0 6.0 0.00 0.00 0.00 56 1009.6
20260509182003 86 21 1.0 6.0 0.00 0.00 0.00 54 1009.5
20260509181503 87 19 1.0 4.0 0.00 0.00 0.00 56 1009.5
20260509181213 86 13 1.0 4.0 0.00 0.00 0.00 55 1009.6
20260509180503 87 45 1.0 5.0 0.00 0.00 0.00 55 1009.7
20260509180003 87 60 1.0 5.0 0.00 0.00 0.00 54 1009.7
20260509175503 87 60 1.0 4.0 0.00 0.00 0.00 54 1009.8
20260509175213 87 63 1.0 6.0 0.00 0.00 0.00 56 1009.8
20260509174503 86 46 1.0 6.0 0.00 0.00 0.00 57 1009.8
20260509174003 85 344 1.0 4.0 0.00 0.00 0.00 56 1009.9
20260509173503 86 324 1.0 5.0 0.00 0.00 0.00 56 1009.9
20260509173213 86 326 1.0 5.0 0.00 0.00 0.00 56 1010.0
20260509172503 85 328 1.0 4.0 0.00 0.00 0.00 56 1010.1
20260509172003 86 359 1.0 8.0 0.00 0.00 0.00 55 1010.1
20260509171503 85 345 1.0 8.0 0.00 0.00 0.00 56 1010.2
20260509171003 85 335 1.0 9.0 0.00 0.00 0.00 54 1010.2
20260509170503 85 318 1.0 9.0 0.00 0.00 0.00 55 1010.2
20260509170003 85 320 1.0 7.0 0.00 0.00 0.00 54 1010.2
20260509165503 85 307 1.0 7.0 0.00 0.00 0.00 56 1010.2
20260509165213 85 281 2.0 8.0 0.00 0.00 0.00 56 1010.2
20260509164503 85 273 2.0 8.0 0.00 0.00 0.00 55 1010.3
20260509164003 85 278 2.0 8.0 0.00 0.00 0.00 56 1010.4
20260509163503 85 321 2.0 8.0 0.00 0.00 0.00 56 1010.4
20260509163003 84 336 2.0 7.0 0.00 0.00 0.00 56 1010.5
20260509162503 84 331 1.0 5.0 0.00 0.00 0.00 57 1010.4
20260509162212 84 331 1.0 4.0 0.00 0.00 0.00 56 1010.5
20260509161713 84 325 1.0 7.0 0.00 0.00 0.00 57 1010.5
20260509161003 84 306 1.0 6.0 0.00 0.00 0.00 57 1010.4
20260509160503 84 307 2.0 7.0 0.00 0.00 0.00 56 1010.3
20260509160003 83 306 2.0 8.0 0.00 0.00 0.00 56 1010.3
20260509155503 83 300 2.0 8.0 0.00 0.00 0.00 57 1010.2
20260509155212 83 288 2.0 7.0 0.00 0.00 0.00 58 1010.1
20260509154503 83 294 2.0 6.0 0.00 0.00 0.00 60 1010.1
20260509154003 82 282 3.0 8.0 0.00 0.00 0.00 60 1010.2
20260509153503 82 280 3.0 8.0 0.00 0.00 0.00 58 1010.3
20260509153212 82 291 2.0 8.0 0.00 0.00 0.00 59 1010.3
20260509152503 82 312 2.0 6.0 0.00 0.00 0.00 62 1010.2
20260509152003 81 302 2.0 10.0 0.00 0.00 0.00 62 1010.3
20260509151503 81 287 2.0 10.0 0.00 0.00 0.00 63 1010.4
20260509151212 81 285 2.0 9.0 0.00 0.00 0.00 63 1010.3
20260509150503 80 271 2.0 9.0 0.00 0.00 0.00 63 1010.4
20260509150003 80 277 2.0 8.0 0.00 0.00 0.00 62 1010.4
20260509145503 80 290 2.0 8.0 0.00 0.00 0.00 63 1010.4
20260509145003 79 285 2.0 8.0 0.00 0.00 0.00 62 1010.4
20260509144713 79 283 2.0 7.0 0.00 0.00 0.00 63 1010.4
20260509144003 79 295 1.0 6.0 0.00 0.00 0.00 67 1010.5
20260509143503 78 288 2.0 6.0 0.00 0.00 0.00 66 1010.4
20260509143003 78 297 2.0 8.0 0.00 0.00 0.00 68 1010.5
20260509142503 77 308 1.0 8.0 0.00 0.00 0.00 70 1010.4
20260509142003 77 319 1.0 5.0 0.00 0.00 0.00 72 1010.4
20260509141503 77 333 1.0 5.0 0.00 0.00 0.00 74 1010.4
20260509141003 76 314 1.0 4.0 0.00 0.00 0.00 78 1010.4
20260509140503 76 328 0.0 4.0 0.00 0.00 0.00 80 1010.4
20260509140214 75 339 1.0 5.0 0.00 0.00 0.00 80 1010.4
20260509135503 74 316 1.0 5.0 0.00 0.00 0.00 82 1010.4
20260509135214 74 283 0.0 3.0 0.00 0.00 0.00 83 1010.4
20260509134503 74 275 1.0 6.0 0.00 0.00 0.00 84 1010.5
20260509134003 73 277 1.0 6.0 0.00 0.00 0.00 85 1010.4
20260509133503 73 282 1.0 6.0 0.00 0.00 0.00 85 1010.4
20260509133214 73 288 0.0 6.0 0.00 0.00 0.00 86 1010.3
20260509132503 72 271 1.0 6.0 0.00 0.00 0.00 87 1010.3
20260509132003 72 268 1.0 4.0 0.00 0.00 0.00 89 1010.4
20260509131712 71 269 1.0 4.0 0.00 0.00 0.00 89 1010.3
20260509131003 71 275 1.0 6.0 0.00 0.00 0.00 91 1010.3
20260509130712 70 271 2.0 6.0 0.00 0.01 0.00 91 1010.3
20260509130003 70 274 2.0 6.0 0.00 0.01 0.00 91 1010.4
20260509125503 69 275 2.0 7.0 0.00 0.01 0.00 92 1010.4
20260509125003 69 275 2.0 7.0 0.00 0.01 0.00 92 1010.3
20260509124503 69 276 1.0 4.0 0.00 0.01 0.00 92 1010.5
20260509124003 69 266 1.0 4.0 0.00 0.01 0.00 92 1010.3
20260509123503 68 274 1.0 4.0 0.00 0.01 0.00 92 1010.3
20260509123003 68 284 1.0 3.0 0.00 0.01 0.00 92 1010.2
20260509122503 68 288 1.0 4.0 0.00 0.01 0.00 93 1010.1
20260509122213 68 291 0.0 4.0 0.00 0.01 0.00 92 1010.1
20260509121503 68 302 0.0 2.0 0.00 0.01 0.00 92 1010.0
20260509121003 68 280 0.0 3.0 0.00 0.01 0.00 92 1010.0
20260509120503 68 281 1.0 4.0 0.00 0.01 0.00 92 1010.0
20260509120003 68 287 1.0 4.0 0.00 0.01 0.00 92 1009.9
20260509115503 68 294 1.0 4.0 0.00 0.01 0.00 92 1009.9
20260509115213 68 297 1.0 4.0 0.00 0.01 0.00 92 1009.9
20260509114503 68 300 1.0 4.0 0.00 0.01 0.00 92 1009.7
20260509114003 68 294 1.0 4.0 0.00 0.01 0.00 92 1009.7
20260509113503 68 279 1.0 6.0 0.00 0.01 0.00 91 1009.4
20260509113213 68 282 1.0 6.0 0.00 0.01 0.00 91 1009.3
20260509112503 68 287 1.0 5.0 0.00 0.01 0.00 90 1009.4
20260509112003 68 281 2.0 8.0 0.00 0.01 0.00 90 1009.3
20260509111503 68 268 2.0 8.0 0.00 0.01 0.00 90 1009.3
20260509111003 68 268 2.0 7.0 0.00 0.01 0.00 90 1009.2
20260509110503 68 279 2.0 7.0 0.00 0.01 0.00 90 1008.9
20260509110003 68 267 2.0 7.0 0.00 0.01 0.00 89 1009.0
20260509105503 68 263 2.0 9.0 0.00 0.01 0.00 89 1009.0
20260509105212 68 268 2.0 9.0 0.00 0.01 0.00 89 1008.9
20260509104503 68 261 2.0 6.0 0.00 0.01 0.00 89 1009.1
20260509104003 68 265 2.0 6.0 0.00 0.01 0.00 89 1008.8
20260509103503 68 264 2.0 6.0 0.00 0.01 0.00 89 1008.8
20260509103212 68 258 1.0 6.0 0.00 0.01 0.00 89 1008.9
20260509102503 68 259 0.0 2.0 0.00 0.02 0.00 88 1008.6
20260509102003 68 260 0.0 1.0 0.00 0.03 0.00 88 1008.4
20260509101503 68 260 0.0 2.0 0.00 0.12 0.00 87 1008.4
20260509101003 68 260 0.0 2.0 0.00 0.14 0.00 86 1008.5
20260509100503 68 0 0.0 0.0 0.00 0.18 0.00 86 1008.4
20260509100003 69 0 0.0 0.0 0.00 0.18 0.00 85 1008.4
20260509095503 70 0 0.0 0.0 0.00 0.18 0.00 84 1008.4
20260509095003 70 0 0.0 0.0 0.00 0.18 0.00 84 1008.2
20260509094503 70 260 0.0 1.0 0.00 0.18 0.00 83 1008.1
20260509094003 70 260 0.0 1.0 0.00 0.18 0.00 82 1008.1
20260509093503 71 260 0.0 1.0 0.00 0.18 0.00 82 1007.9
20260509093003 71 271 1.0 4.0 0.00 0.19 0.00 80 1007.7
20260509092503 71 276 1.0 4.0 0.00 0.19 0.00 79 1007.7
20260509092214 72 308 0.0 3.0 0.00 0.19 0.00 79 1007.7
20260509091503 72 346 1.0 7.0 0.00 0.19 0.00 78 1007.5
20260509091214 72 351 1.0 7.0 0.00 0.19 0.00 77 1007.5
20260509090713 72 360 0.0 6.0 0.00 0.19 0.00 76 1007.6
20260509090003 73 356 0.0 4.0 0.00 0.19 0.00 74 1007.6
20260509085503 73 295 1.0 5.0 0.00 0.19 0.00 73 1007.5
20260509085003 73 215 2.0 8.0 0.00 0.19 0.00 73 1007.6
20260509084713 73 226 3.0 9.0 0.00 0.19 0.00 74 1008.0
20260509084003 72 188 3.0 9.0 0.00 0.19 0.00 78 1008.0
20260509083503 71 144 4.0 9.0 0.00 0.19 0.00 82 1007.0
20260509083214 72 145 4.0 9.0 0.00 0.19 0.00 82 1005.5
20260509082503 72 139 4.0 12.0 0.00 0.20 0.00 81 1005.4
20260509082003 71 137 4.0 12.0 0.00 0.21 0.00 81 1004.9
20260509081503 71 161 3.0 9.0 0.00 0.21 0.00 81 1005.4
20260509081003 72 147 3.0 9.0 0.00 0.21 0.00 81 1006.1
20260509080503 72 129 4.0 9.0 0.00 0.21 0.00 81 1005.4
20260509080003 72 149 3.0 9.0 0.00 0.21 0.00 80 1006.0
20260509075503 71 172 3.0 11.0 0.00 0.21 0.00 84 1006.5
20260509075003 70 172 3.0 11.0 0.00 0.21 0.00 89 1007.1
20260509074712 70 173 3.0 9.0 0.00 0.21 0.00 90 1007.4
20260509074003 70 158 3.0 8.0 0.00 0.21 0.00 91 1008.0
20260509073503 70 195 3.0 7.0 0.00 0.22 0.00 92 1008.3
20260509073003 70 212 3.0 8.0 0.00 0.22 0.00 92 1008.5
20260509072503 70 206 3.0 8.0 0.00 0.24 0.00 92 1009.0
20260509072003 70 200 2.0 7.0 0.00 0.24 0.00 92 1009.1
20260509071503 70 181 3.0 10.0 0.00 0.25 0.00 92 1009.3
20260509071213 70 164 4.0 10.0 0.00 0.25 0.00 92 1009.3
20260509070712 70 180 3.0 10.0 0.00 0.27 0.00 92 1009.3
20260509070003 69 201 2.0 5.0 0.00 0.29 0.00 92 1009.6
20260509065712 69 209 2.0 5.0 0.00 0.29 0.00 92 1009.9
20260509065003 69 207 2.0 4.0 0.00 0.29 0.00 92 1010.2
20260509064503 69 188 1.0 4.0 0.00 0.29 0.00 92 1010.1
20260509064213 69 178 1.0 4.0 0.00 0.29 0.00 92 1010.1
20260509063503 69 214 1.0 3.0 0.00 0.29 0.00 92 1010.5
20260509063003 69 228 1.0 3.0 0.00 0.29 0.00 92 1010.6
20260509062503 68 234 1.0 3.0 0.00 0.29 0.00 92 1010.6
20260509062003 68 270 0.0 3.0 0.00 0.29 0.00 91 1010.5
20260509061503 69 251 1.0 3.0 0.00 0.29 0.00 91 1010.7
20260509061003 69 248 0.0 3.0 0.00 0.29 0.00 91 1010.8
20260509060503 69 273 0.0 3.0 0.00 0.29 0.00 91 1010.7
20260509060003 69 0 0.0 0.0 0.00 0.29 0.00 91 1010.6
20260509055503 69 140 0.0 1.0 0.00 0.29 0.00 90 1010.5
20260509055003 69 140 0.0 1.0 0.00 0.29 0.00 90 1010.5
20260509054503 69 140 1.0 3.0 0.00 0.29 0.00 90 1010.5
20260509054003 69 141 0.0 3.0 0.00 0.29 0.00 89 1010.2
20260509053503 70 307 0.0 2.0 0.00 0.29 0.00 89 1010.2
20260509053003 70 306 0.0 2.0 0.00 0.29 0.00 89 1010.7
20260509052713 70 306 0.0 2.0 0.00 0.29 0.00 88 1010.5
20260509052003 70 341 0.0 3.0 0.00 0.29 0.00 88 1011.0
20260509051713 71 331 1.0 7.0 0.00 0.29 0.00 88 1010.9
20260509051212 71 339 1.0 7.0 0.00 0.29 0.00 88 1011.1
20260509050503 71 343 1.0 5.0 0.00 0.29 0.00 87 1011.2
20260509050003 71 342 0.0 5.0 0.00 0.29 0.00 87 1011.3
20260509045503 71 327 0.0 2.0 0.00 0.29 0.29 88 1011.5
20260509045003 71 164 0.0 1.0 0.00 0.29 0.29 87 1011.0
20260509044503 71 163 0.0 1.0 0.00 0.29 0.29 87 1010.4
20260509044003 72 166 0.0 1.0 0.00 0.29 0.29 87 1010.0
20260509043713 72 166 0.0 1.0 0.00 0.29 0.29 87 1010.0
20260509043003 72 166 0.0 3.0 0.00 0.29 0.29 87 1009.8
20260509042503 72 149 1.0 3.0 0.00 0.29 0.29 86 1009.6
20260509042003 72 117 1.0 5.0 0.00 0.29 0.29 86 1009.5
20260509041503 72 128 1.0 5.0 0.00 0.29 0.29 86 1009.3
20260509041003 72 124 1.0 4.0 0.00 0.29 0.29 86 1009.2
20260509040503 72 123 1.0 4.0 0.00 0.29 0.29 86 1009.3
20260509040003 72 145 1.0 3.0 0.00 0.29 0.29 86 1009.3
20260509035503 72 133 1.0 3.0 0.00 0.29 0.29 86 1009.3
20260509035003 72 126 1.0 3.0 0.00 0.29 0.29 86 1009.5
20260509034503 72 112 1.0 3.0 0.00 0.29 0.29 85 1009.3
20260509034003 72 87 1.0 3.0 0.00 0.29 0.29 85 1009.5
20260509033503 72 64 1.0 3.0 0.00 0.29 0.29 85 1009.5
20260509033003 72 45 1.0 5.0 0.00 0.29 0.29 85 1009.5
20260509032503 72 31 1.0 6.0 0.00 0.29 0.29 84 1009.7
20260509032214 72 31 1.0 6.0 0.00 0.29 0.29 84 1009.9
20260509031503 72 24 0.0 2.0 0.00 0.29 0.29 84 1009.8
20260509031003 72 46 1.0 5.0 0.00 0.29 0.29 85 1009.6
20260509030503 72 50 1.0 5.0 0.00 0.29 0.29 85 1009.3
20260509030003 72 76 1.0 6.0 0.00 0.29 0.29 84 1009.0
20260509025503 72 108 2.0 7.0 0.00 0.29 0.29 84 1008.6
20260509025214 72 115 2.0 7.0 0.00 0.29 0.29 84 1008.4
20260509024503 73 116 2.0 8.0 0.00 0.29 0.29 84 1008.2
20260509024003 73 112 2.0 5.0 0.00 0.29 0.29 84 1008.3
20260509023503 73 121 2.0 6.0 0.00 0.29 0.29 84 1008.2
20260509023003 73 127 3.0 10.0 0.00 0.29 0.29 83 1008.0
20260509022503 73 124 3.0 10.0 0.00 0.29 0.29 83 1007.9
20260509022213 73 128 2.0 10.0 0.00 0.29 0.29 83 1007.8
20260509021503 73 136 2.0 4.0 0.00 0.29 0.29 83 1007.7
20260509021003 73 132 2.0 6.0 0.00 0.29 0.29 83 1007.7
20260509020712 73 133 2.0 6.0 0.00 0.29 0.29 83 1007.7
20260509020003 73 130 2.0 7.0 0.00 0.29 0.29 83 1007.6
20260509015712 73 128 2.0 7.0 0.00 0.29 0.29 82 1007.5
20260509015213 73 130 2.0 7.0 0.00 0.29 0.29 82 1007.5
20260509014503 73 131 2.0 5.0 0.00 0.29 0.29 82 1007.5
20260509014003 73 128 2.0 7.0 0.00 0.29 0.29 82 1007.5
20260509013712 73 130 2.0 7.0 0.00 0.29 0.29 81 1007.6
20260509013003 73 128 2.0 8.0 0.00 0.29 0.29 81 1007.8
20260509012503 74 124 3.0 8.0 0.00 0.29 0.29 80 1007.9
20260509012003 74 123 2.0 8.0 0.00 0.29 0.29 80 1007.9
20260509011714 74 126 2.0 8.0 0.00 0.29 0.29 80 1008.0
20260509011003 74 134 2.0 5.0 0.00 0.29 0.29 80 1008.0
20260509010503 74 141 1.0 4.0 0.00 0.29 0.29 80 1008.1
20260509010003 74 168 1.0 4.0 0.00 0.29 0.29 80 1008.0
20260509005503 74 143 1.0 5.0 0.00 0.29 0.29 80 1007.9
20260509005003 74 121 2.0 8.0 0.00 0.29 0.29 80 1007.8
20260509004503 74 126 3.0 8.0 0.00 0.29 0.29 80 1007.7
20260509004003 74 127 3.0 9.0 0.00 0.29 0.29 80 1007.6
20260509003503 74 130 3.0 9.0 0.00 0.29 0.29 79 1007.6
20260509003003 74 135 3.0 8.0 0.00 0.29 0.29 79 1007.4
20260509002714 74 127 3.0 8.0 0.00 0.29 0.29 79 1007.4
20260509002212 74 121 3.0 8.0 0.00 0.29 0.29 78 1007.5
20260509001503 74 131 3.0 8.0 0.00 0.29 0.29 78 1007.4
20260509001003 74 148 3.0 7.0 0.00 0.29 0.29 78 1007.3
20260509000714 74 157 2.0 7.0 0.00 0.29 0.29 77 1007.4
20260509000003 75 145 3.0 7.0 0.00 0.29 0.29 77 1007.5
20260508235503 75 129 3.0 8.0 0.00 0.29 0.29 76 1007.5
20260508235003 75 128 3.0 8.0 0.00 0.29 0.29 76 1007.5
20260508234503 75 131 2.0 7.0 0.00 0.29 0.29 76 1007.6
20260508234212 76 126 3.0 8.0 0.00 0.29 0.29 76 1007.8
20260508233503 75 126 3.0 8.0 0.00 0.29 0.29 76 1007.7
20260508233003 75 131 3.0 8.0 0.00 0.29 0.29 75 1007.7
20260508232503 76 141 3.0 8.0 0.00 0.29 0.29 75 1007.9
20260508232003 76 142 3.0 8.0 0.00 0.29 0.29 74 1007.9
20260508231713 76 134 3.0 9.0 0.00 0.29 0.29 74 1007.9